星链-35806(STARLINK-35806)

导读

STARLINK-35822是美国于2025年11月6日发射的星链卫星,隶属于SpaceX公司主导的星链星座项目。星链项目旨在构建全球卫星互联网星座,为全球偏远、网络欠发达地区提供高速互联网接入服务。该卫星发射后将进入预定轨道,参与星座组网,进一步扩展星链全球覆盖范围,提升星座整体服务能力。

Basic Information
目录编号:
66362
目录名称:
STARLINK-35822
国际标识:
2025-254Q
轨道中心:
EARTH
卫星名称:
星链-35806
卫星全名:
星链-35806(STARLINK-35806)
卫星状态:
在轨 (已飞行219 天)
发射日期:
2025-11-06 UTC
国别 :
美国 (US)
星等 :
--
Orbit Information
数据来源 国际轨道数据 AOE轨道数据
星历时间 2026-06-12T14:35:57+0800
1天前
查看轨道信息
2026-06-10T03:00:00+0800
3天前
查看轨道信息
半长轴 6853.312km 6853.403km
偏心率 0.0001305 0.0001316
轨道倾角 53.157° 53.160°
近地点辐角 74.398° 88.401°
升交点赤经 153.356° 164.894°
平近点角 285.716° 264.262°
近地点 474.28km 474.364km
远地点 476.07km 476.168km
周期 94.105分钟 94.106分钟
每日圈数 15.302137 15.301832
Detailed Information
固有亮度:
5
最大亮度:
2.5
卫星平台:
Starlink V1.0
覆盖范围:
全球
运营商:
太空探索技术公司
运营商所在国:
美国
制造商(研发单位):
太空探索技术公司
制造商所在国:
美国
使用方式:
暂无
Satellite Introduction
Starlink 计划是 SpaceX 推出的全球卫星互联网项目,通过发射低轨道卫星,为全球尤其是偏远地区提供高速、低延迟的互联网服务。自 2019 年起,Starlink 已部署数千颗卫星,旨在缩小全球数字鸿沟,推动互联网普及。该项目还为军事、航空等行业提供通信支持,带来广泛经济效益。
2D Orbit Map
3D Orbit Map
Orbit Altitude Analysis Chart
Orbit Inclination Analysis Chart
Orbit Comprehensive Analysis Chart
View Comprehensive Chart